GLOBALSTAR M072 [+]

Last updated on July 6, 2021, 3:36 p.m. UTC

1 31574U 07020D   21186.90050032 -.00000092  00000-0  63141-4 0  9997
2 31574  52.0103 348.0481 0002015  96.6108  68.2323 12.62267150650770
UTC
Height (km)
Latitude
Longitude
Inclination
Orbital Period
UTC large
Height (km)
Speed (km/s)
/
Latitude / Longitude
Inclination (degrees)
Orbital Period (minutes)
Azimuth
Elevation
Range (km)
Doppler Factor
iOS Compass Heading
iOS Angle